Tracking 25949 objects as of 9-Aug-2022
HD Live streaming from Space Station
objects crossing your sky now

STARLINK-4318

Track STARLINK-4318 now!
10-day predictions
STARLINK-4318 is classified as:


NORAD ID: 53086
Int'l Code: 2022-077AV
Perigee: 426.1 km
Apogee: 428.8 km
Inclination: 97.7 °
Period: 93.0 minutes
Semi major axis: 6798 km
RCS: Unknown
Launch date: July 11, 2022
Source: United States (US)
Launch site: AIR FORCE WESTERN TEST RANGE (AFWTR)
aabbcc
Your satellite tracking list
Your tracking list is empty




NASA's NSSDC Master Catalog

Two Line Element Set (TLE):
1 53086U 22077AV  22220.91667824 -.01216044  00000-0 -24905-1 0  9992
2 53086  97.6555  40.7876 0001990  61.5171  83.7153 15.48784986  1304
Source of the keplerian elements: AFSPC